[[{"header":{"parameterUnit":"m.s-1","parameterCategory":1,"la1":30.2992,"la2":30.254,"lo1":-89.0895,"lo2":-89.0443,"dy":0.0025,"dx":0.0025,"nx":19,"ny":19,"refTime":"2026-04-25T09:00:00:Z","depth":0,"parameterNumber":2,"parameterNumberName":"U-component_of_WINDS"},"data":[0,0,0,-1.1451,-1.1451,-1.1432,-1.1432,-1.1415,-1.1415,0,0,0,0,0,0,0,0,0,0,0,-1.1461,-1.1461,-1.1451,-1.1451,-1.1432,-1.1432,-1.1415,-1.1415,0,0,0,0,0,0,0,0,0,0,0,-1.1461,-1.1461,-1.1461,-1.1451,-1.1432,-1.1432,-1.1415,-1.1427,0,0,0,0,0,0,0,0,0,0,-1.1444,-1.1456,-1.1461,-1.1461,-1.1451,-1.1432,-1.1432,-1.1427,-1.1426,-1.1426,0,-1.1427,0,-1.1421,-1.1414,-1.1414,0,0,0,-1.1448,-1.1457,-1.1449,-1.1461,-1.1451,-1.1432,-1.144,-1.1427,-1.1425,-1.1425,-1.1427,-1.1426,-1.1421,-1.1414,-1.1414,-1.1425,-1.1425,0,0,-1.1449,-1.1459,-1.145,-1.1448,-1.1451,-1.144,-1.1439,-1.1426,-1.1429,-1.1427,-1.1426,-1.142,-1.1414,-1.1414,-1.1425,-1.1425,0,0,0,-1.1454,-1.146,-1.1452,-1.1449,-1.1445,-1.144,-1.1438,-1.1429,-1.1426,-1.1426,-1.142,-1.1414,-1.1414,-1.1425,-1.1425,-1.1444,0,0,0,-1.1454,-1.1463,-1.1452,-1.1458,-1.1445,-1.1437,-1.1443,-1.1427,-1.1425,-1.142,-1.1414,-1.1414,-1.1425,-1.1425,-1.1443,-1.1451,0,0,0,-1.1461,-1.1464,-1.1462,-1.1459,-1.1451,-1.1437,-1.1432,-1.1426,-1.1422,-1.1414,-1.1414,-1.1424,-1.1425,-1.1442,-1.145,-1.1458,0,0,0,-1.147,-1.1479,-1.1463,-1.1471,-1.1451,-1.1449,-1.1432,-1.143,-1.1425,-1.1414,-1.1425,-1.1425,-1.1442,-1.1449,-1.1457,-1.1466,-1.1471,0,0,-1.1487,-1.1482,-1.1486,-1.147,-1.1473,-1.1451,-1.1456,-1.1443,-1.1433,-1.1428,-1.1429,-1.1443,-1.145,-1.1458,-1.1494,-1.1498,0,0,0,-1.1495,-1.1498,-1.1496,-1.1493,-1.1483,-1.1475,-1.1459,-1.1455,-1.145,-1.1432,-1.1448,-1.1451,-1.1456,-1.146,-1.1463,-1.1466,-1.1427,-1.1427,-1.1427,-1.1534,-1.1521,-1.1527,-1.1512,-1.1508,-1.1493,-1.1489,-1.148,-1.1467,-1.1472,-1.147,-1.1494,-1.1499,-1.1501,-1.1505,-1.1474,-1.1474,-1.1474,-1.1474,-1.1558,-1.1561,-1.1544,-1.1544,-1.1531,-1.1531,-1.1517,-1.1508,-1.1506,-1.1494,-1.1496,-1.1484,-1.1506,-1.1508,-1.1475,-1.1475,-1.1475,-1.1475,-1.1475,-1.1583,-1.1582,-1.1576,-1.157,-1.1567,-1.1551,-1.1551,-1.1538,-1.1526,-1.1529,-1.1527,-1.1527,-1.1525,-1.1529,-1.1529,-1.1529,-1.1529,-1.1529,-1.1529,-1.1611,-1.1603,-1.1604,-1.1595,-1.1591,-1.1585,-1.157,-1.1566,-1.1559,-1.155,-1.155,-1.1538,-1.151,-1.1504,-1.1531,-1.153,-1.153,-1.153,-1.153,-1.1641,-1.1633,-1.1634,-1.163,-1.1619,-1.1617,-1.1601,-1.1595,-1.159,-1.159,-1.1577,-1.1559,-1.1552,-1.155,-1.1544,-1.158,-1.158,-1.158,-1.158,-1.1663,-1.1658,-1.1657,-1.1652,-1.1646,-1.1632,-1.1635,-1.1623,-1.161,-1.1607,-1.16,-1.1592,-1.1589,-1.1584,-1.1581,-1.1576,-1.1618,-1.1618,-1.1618,-1.1681,-1.1675,-1.168,-1.1666,-1.1656,-1.1648,-1.1651,-1.1647,-1.163,-1.1619,-1.1604,-1.1602,-1.1589,-1.1585,-1.1574,-1.1569,-1.1559,0,0]},{"header":{"parameterUnit":"m.s-1","parameterCategory":1,"la1":30.2992,"la2":30.254,"lo1":-89.0895,"lo2":-89.0443,"dy":0.0025,"dx":0.0025,"nx":19,"ny":19,"refTime":"2026-04-25T09:00:00:Z","depth":0,"parameterNumber":3,"parameterNumberName":"V-component_of_WINDS"},"data":[0,0,0,3.2735,3.2736,3.2752,3.2752,3.2789,3.279,0,0,0,0,0,0,0,0,0,0,0,3.2739,3.274,3.2735,3.2736,3.2752,3.2752,3.2789,3.279,0,0,0,0,0,0,0,0,0,0,0,3.2739,3.274,3.2741,3.2736,3.2752,3.2752,3.2789,3.2771,0,0,0,0,0,0,0,0,0,0,3.2752,3.2765,3.274,3.2741,3.2736,3.2752,3.2752,3.277,3.2772,3.2788,0,3.2805,0,3.2798,3.2793,3.2793,0,0,0,3.2729,3.2764,3.276,3.2741,3.2736,3.2752,3.2743,3.2771,3.2774,3.2792,3.2806,3.2807,3.2799,3.2794,3.2794,3.2912,3.2912,0,0,3.2728,3.2748,3.2758,3.2762,3.276,3.2742,3.2743,3.2772,3.2789,3.2806,3.2807,3.28,3.2794,3.2794,3.2911,3.2912,0,0,0,3.273,3.2747,3.2742,3.2761,3.2762,3.2743,3.2744,3.2788,3.2784,3.2808,3.28,3.2794,3.2795,3.291,3.2911,3.2974,0,0,0,3.2729,3.2748,3.2742,3.2754,3.2762,3.2775,3.2759,3.2782,3.2785,3.28,3.2794,3.2795,3.2909,3.2911,3.297,3.3001,0,0,0,3.2735,3.2749,3.2755,3.2756,3.2763,3.2774,3.2772,3.2783,3.2781,3.2793,3.2796,3.2908,3.291,3.2967,3.2995,3.3038,0,0,0,3.2748,3.281,3.2756,3.2823,3.2763,3.2813,3.2772,3.2808,3.2826,3.2795,3.2909,3.2911,3.2966,3.2992,3.3034,3.3078,3.3098,0,0,3.2838,3.2822,3.286,3.2812,3.2876,3.2809,3.2883,3.2881,3.2864,3.2897,3.2899,3.2972,3.2995,3.3037,3.3202,3.3218,0,0,0,3.2895,3.2923,3.2935,3.2954,3.2954,3.2956,3.2941,3.294,3.2967,3.2885,3.2998,3.3011,3.3035,3.3055,3.3069,3.3088,3.2921,3.2921,3.2921,3.3052,3.3026,3.3088,3.3065,3.3083,3.3066,3.3079,3.3075,3.3044,3.3072,3.3081,3.3184,3.3208,3.3218,3.3239,3.3102,3.3102,3.3102,3.3102,3.3182,3.3217,3.3175,3.3219,3.3192,3.3228,3.3215,3.3192,3.3222,3.3174,3.3195,3.3145,3.3237,3.3253,3.3107,3.3106,3.3106,3.3105,3.3105,3.3282,3.3295,3.3293,3.3317,3.3338,3.3312,3.3344,3.3318,3.3294,3.3313,3.3321,3.332,3.3316,3.3319,3.3319,3.332,3.332,3.332,3.332,3.3388,3.3383,3.3413,3.3418,3.3426,3.3434,3.3418,3.3426,3.3428,3.3406,3.3406,3.3373,3.325,3.322,3.3326,3.3325,3.3324,3.3324,3.3323,3.3531,3.3494,3.354,3.3548,3.3552,3.3575,3.3542,3.356,3.3562,3.3579,3.3541,3.3454,3.3436,3.3425,3.34,3.3546,3.3546,3.3546,3.3546,3.3616,3.3604,3.3645,3.366,3.3672,3.3646,3.3699,3.3687,3.3669,3.3669,3.3644,3.3609,3.3599,3.3586,3.3572,3.3548,3.3729,3.3729,3.3729,3.3703,3.3691,3.374,3.3722,3.3723,3.3725,3.3774,3.3793,3.3765,3.3736,3.3669,3.3661,3.3603,3.3586,3.3556,3.3534,3.349,0,0]}]]